CW9676 Weather Reports


time (UTC)temp
F
wind
direction
speed
knots
gust
knots
rain 1hr
in
rain 24hr
in
rain mn
in
humidity
%
barometer
mb
20260903005215 81 157 5.2 12.2 0.00 0.00 0.00 29 1004.8
20260903004152 82 144 6.1 12.2 0.00 0.00 0.00 28 1004.9
20260903003144 84 179 7.8 14.8 0.00 0.00 0.00 27 1004.8
20260903002120 85 200 7.0 14.8 0.00 0.00 0.00 27 1004.7
20260903001141 85 176 5.2 13.9 0.00 0.00 0.00 27 1004.7
20260903000110 85 175 7.0 13.9 0.00 0.00 0.00 26 1004.8
20260902233926 87 148 5.2 10.4 0.00 0.00 0.00 24 1004.9
20260902232852 86 125 6.1 13.0 0.00 0.00 0.00 23 1005.0
20260902231822 87 162 7.0 13.0 0.00 0.00 0.00 23 1005.0
20260902230751 88 4 5.2 12.2 0.00 0.00 0.00 23 1005.1
20260902225746 88 175 4.3 13.9 0.00 0.00 0.00 23 1005.2
20260902224737 87 200 5.2 14.8 0.00 0.00 0.00 24 1005.4
20260902223716 86 198 7.8 14.8 0.00 0.00 0.00 24 1005.4
20260902222655 88 169 6.1 14.8 0.00 0.00 0.00 23 1005.4
20260902221652 88 165 6.1 14.8 0.00 0.00 0.00 24 1005.6
20260902220630 87 127 6.1 11.3 0.00 0.00 0.00 24 1005.7
20260902215623 87 160 6.1 13.9 0.00 0.00 0.00 25 1005.7
20260902214612 88 146 7.8 13.9 0.00 0.00 0.00 24 1005.8
20260902213611 88 148 1.7 10.4 0.00 0.00 0.00 25 1006.0
20260902212549 87 193 5.2 15.6 0.00 0.00 0.00 26 1006.1
20260902210457 87 167 5.2 10.4 0.00 0.00 0.00 25 1006.5
20260902205430 86 210 3.5 13.0 0.00 0.00 0.00 27 1006.7
20260902204423 85 198 5.2 13.0 0.00 0.00 0.00 26 1006.9
20260902203431 86 192 6.1 11.3 0.00 0.00 0.00 26 1007.1
20260902202449 88 176 5.2 11.3 0.00 0.00 0.00 24 1007.3
20260902201447 87 197 4.3 13.0 0.00 0.00 0.00 26 1007.5
20260902195350 86 115 6.1 11.3 0.00 0.00 0.00 26 1007.9
20260902194342 85 223 5.2 10.4 0.00 0.00 0.00 25 1008.0
20260902193326 85 139 4.3 11.3 0.00 0.00 0.00 25 1008.3
20260902192347 85 117 5.2 14.8 0.00 0.00 0.00 24 1008.5
20260902191409 84 250 6.1 14.8 0.00 0.00 0.00 24 1008.5
20260902190434 86 173 6.1 12.2 0.00 0.00 0.00 23 1008.6
20260902185457 84 140 6.1 13.9 0.00 0.00 0.00 24 1008.7
20260902184427 85 4 6.1 13.9 0.00 0.00 0.00 24 1009.0
20260902183418 84 198 5.2 10.4 0.00 0.00 0.00 25 1009.0
20260902182417 83 219 7.0 12.2 0.00 0.00 0.00 25 1009.1
20260902181438 84 156 6.1 12.2 0.00 0.00 0.00 24 1009.1
20260902180421 84 4 4.3 13.9 0.00 0.00 0.00 23 1009.2
20260902173141 81 4 6.1 12.2 0.00 0.00 0.00 24 1009.5
20260902170951 81 180 5.2 10.4 0.00 0.00 0.00 30 1009.5
20260902165933 80 202 5.2 10.4 0.00 0.00 0.00 33 1009.7
20260902162647 78 156 5.2 10.4 0.00 0.00 0.00 39 1009.6
20260902161704 78 157 4.3 10.4 0.00 0.00 0.00 40 1009.6
20260902160729 77 4 4.3 10.4 0.00 0.00 0.00 41 1009.6
20260902155658 77 210 4.3 9.6 0.00 0.00 0.00 42 1009.5
20260902153516 77 160 3.5 8.7 0.00 0.00 0.00 40 1009.4
20260902152459 76 202 4.3 10.4 0.00 0.00 0.00 40 1009.4
20260902150325 74 230 4.3 9.6 0.00 0.00 0.00 44 1009.4
20260902145344 73 213 4.3 9.6 0.00 0.00 0.00 44 1009.5
20260902144346 73 215 5.2 9.6 0.00 0.00 0.00 43 1009.5
20260902143324 72 233 6.1 10.4 0.00 0.00 0.00 42 1009.4
20260902142300 71 217 6.1 12.2 0.00 0.00 0.00 41 1009.4
20260902141324 71 212 6.1 12.2 0.00 0.00 0.00 43 1009.3
20260902135209 68 201 4.3 7.8 0.00 0.00 0.00 50 1009.3
20260902134146 67 4 3.5 9.6 0.00 0.00 0.00 52 1009.3
20260902133153 66 4 4.3 9.6 0.00 0.00 0.00 53 1009.3
20260902132138 66 214 4.3 8.7 0.00 0.00 0.00 54 1008.9
20260902131120 66 194 4.3 7.8 0.00 0.00 0.00 54 1008.9
20260902124914 66 177 4.3 8.7 0.00 0.00 0.00 55 1008.6
20260902123917 66 223 4.3 7.8 0.00 0.00 0.00 55 1008.5
20260902122942 66 213 4.3 8.7 0.00 0.00 0.00 54 1008.3
20260902121930 66 216 5.2 8.7 0.00 0.00 0.00 54 1008.1
20260902120946 66 4 4.3 8.7 0.00 0.00 0.00 55 1008.1
20260902120006 67 213 4.3 8.7 0.00 0.00 0.00 55 1008.2
20260902114959 67 216 5.2 8.7 0.00 0.00 0.00 55 1008.2
20260902113954 67 213 5.2 8.7 0.00 0.00 0.00 55 1008.2
20260902112956 67 4 4.3 7.8 0.00 0.00 0.00 55 1008.2
20260902111938 67 214 4.3 7.0 0.00 0.00 0.00 56 1008.2
20260902110905 67 195 3.5 7.0 0.00 0.00 0.00 55 1008.2
20260902105920 68 4 4.3 7.8 0.00 0.00 0.00 55 1008.1
20260902104918 68 221 4.3 8.7 0.00 0.00 0.00 54 1008.1
20260902103849 68 215 4.3 8.7 0.00 0.00 0.00 54 1008.1
20260902100656 68 4 3.5 7.8 0.00 0.00 0.00 53 1008.2
20260902095645 68 173 4.3 7.0 0.00 0.00 0.00 52 1008.1
20260902094653 68 219 4.3 7.0 0.00 0.00 0.00 52 1008.2
20260902093646 68 203 4.3 7.8 0.00 0.00 0.00 52 1008.2
20260902091433 67 4 2.6 5.2 0.00 0.00 0.00 53 1008.3
20260902090428 67 214 3.5 5.2 0.00 0.00 0.00 53 1008.2
20260902085407 67 229 3.5 5.2 0.00 0.00 0.00 53 1008.2
20260902083246 68 221 2.6 5.2 0.00 0.00 0.00 51 1008.3
20260902082247 67 4 3.5 5.2 0.00 0.00 0.00 51 1008.3
20260902081223 68 215 2.6 7.0 0.00 0.00 0.00 50 1008.4
20260902080215 69 4 3.5 7.0 0.00 0.00 0.00 49 1008.4
20260902074035 69 215 2.6 5.2 0.00 0.00 0.00 49 1008.5
20260902073044 69 223 2.6 4.3 0.00 0.00 0.00 49 1008.5
20260902072020 69 214 2.6 4.3 0.00 0.00 0.00 49 1008.5
20260902070956 69 221 2.6 4.3 0.00 0.00 0.00 49 1008.4
20260902065946 69 223 2.6 4.3 0.00 0.00 0.00 49 1008.5
20260902064923 69 215 3.5 5.2 0.00 0.00 0.00 49 1008.5
20260902063915 69 212 3.5 5.2 0.00 0.00 0.00 49 1008.5
20260902062908 69 221 2.6 4.3 0.00 0.00 0.00 48 1008.5
20260902060723 69 212 2.6 4.3 0.00 0.00 0.00 48 1008.6
20260902054626 69 218 1.7 4.3 0.00 0.00 0.00 48 1008.7
20260902053621 70 4 1.7 3.5 0.00 0.00 0.00 48 1008.7
20260902052550 70 4 1.7 4.3 0.00 0.00 0.00 47 1008.6
20260902051518 71 215 2.6 5.2 0.00 0.00 0.00 47 1008.8
20260902050459 71 194 2.6 6.1 0.00 0.00 0.00 46 1008.8
20260902045519 71 219 3.5 6.1 0.00 0.00 0.00 46 1008.8
20260902044449 71 225 2.6 7.0 0.00 0.00 0.00 46 1008.8
20260902043418 72 191 3.5 8.7 0.00 0.00 0.00 46 1008.7
20260902041215 72 175 2.6 5.2 0.00 0.00 0.00 46 1008.6
20260902035054 72 4 3.5 7.8 0.00 0.00 0.00 45 1008.4
20260902034022 72 195 2.6 7.8 0.00 0.00 0.00 45 1008.3
20260902030752 74 4 3.5 7.8 0.00 0.00 0.00 43 1007.7
20260902025728 74 195 1.7 5.2 0.00 0.00 0.00 43 1007.5
20260902024737 74 210 2.6 4.3 0.00 0.00 0.00 43 1007.3
20260902023734 75 190 2.6 7.8 0.00 0.00 0.00 42 1007.0
20260902022753 75 4 3.5 7.8 0.00 0.00 0.00 42 1006.9
20260902021815 75 200 3.5 7.8 0.00 0.00 0.00 41 1006.8
20260902020747 76 203 3.5 7.8 0.00 0.00 0.00 41 1006.7
20260902015722 77 191 3.5 9.6 0.00 0.00 0.00 40 1006.6
20260902014733 77 161 3.5 9.6 0.00 0.00 0.00 39 1006.4
20260902013735 78 213 2.6 5.2 0.00 0.00 0.00 37 1006.3
20260902012743 79 179 2.6 5.2 0.00 0.00 0.00 35 1006.2
20260902011717 80 196 1.7 7.0 0.00 0.00 0.00 34 1006.3
20260902010740 81 189 3.5 7.0 0.00 0.00 0.00 34 1006.3